| time (UTC) | temp F | wind direction | speed MPH | gust MPH | rain 1hr in | rain 24hr in | rain mn in | humidity % | barometer mb |
| 20260902024042 | 69 | 58 | 6.0 | 14.0 | 0.00 | 0.46 | 0.46 | 92 | 1019.1 |
| 20260902023541 | 69 | 71 | 6.0 | 14.0 | 0.00 | 0.46 | 0.46 | 92 | 1018.9 |
| 20260902023041 | 69 | 60 | 6.0 | 14.0 | 0.00 | 0.46 | 0.46 | 92 | 1018.9 |
| 20260902022541 | 69 | 57 | 2.0 | 12.0 | 0.00 | 0.46 | 0.46 | 93 | 1018.9 |
| 20260902022041 | 69 | 76 | 6.0 | 15.0 | 0.00 | 0.46 | 0.46 | 93 | 1018.8 |
| 20260902021540 | 69 | 59 | 5.0 | 15.0 | 0.00 | 0.46 | 0.46 | 93 | 1018.6 |
| 20260902021040 | 69 | 69 | 4.0 | 13.0 | 0.00 | 0.46 | 0.46 | 93 | 1018.6 |
| 20260902020540 | 69 | 98 | 4.0 | 13.0 | 0.00 | 0.46 | 0.46 | 93 | 1018.5 |
| 20260902020039 | 70 | 57 | 1.0 | 9.0 | 0.00 | 0.46 | 0.46 | 94 | 1018.5 |
| 20260902015539 | 70 | 96 | 5.0 | 10.0 | 0.00 | 0.46 | 0.46 | 94 | 1018.1 |
| 20260902015039 | 70 | 103 | 3.0 | 11.0 | 0.00 | 0.46 | 0.46 | 94 | 1018.1 |
| 20260902014540 | 70 | 80 | 4.0 | 11.0 | 0.00 | 0.46 | 0.46 | 94 | 1018.2 |
| 20260902014038 | 70 | 69 | 5.0 | 14.0 | 0.00 | 0.46 | 0.46 | 94 | 1017.9 |
| 20260902013538 | 71 | 65 | 5.0 | 14.0 | 0.00 | 0.46 | 0.46 | 94 | 1018.0 |
| 20260902013039 | 71 | 64 | 7.0 | 19.0 | 0.00 | 0.46 | 0.46 | 94 | 1017.7 |
| 20260902012538 | 71 | 96 | 7.0 | 19.0 | 0.00 | 0.46 | 0.46 | 94 | 1017.4 |
| 20260902012038 | 71 | 67 | 6.0 | 14.0 | 0.00 | 0.46 | 0.46 | 94 | 1017.5 |
| 20260902011537 | 71 | 79 | 7.0 | 17.0 | 0.00 | 0.46 | 0.46 | 94 | 1017.6 |
| 20260902011038 | 71 | 84 | 8.0 | 17.0 | 0.00 | 0.46 | 0.46 | 94 | 1017.4 |
| 20260902010539 | 72 | 81 | 7.0 | 16.0 | 0.00 | 0.46 | 0.46 | 94 | 1017.0 |
| 20260902010046 | 72 | 80 | 7.0 | 16.0 | 0.00 | 0.46 | 0.46 | 94 | 1017.1 |
| 20260902005537 | 72 | 76 | 8.0 | 16.0 | 0.00 | 0.46 | 0.46 | 94 | 1017.1 |
| 20260902005037 | 72 | 92 | 5.0 | 16.0 | 0.00 | 0.46 | 0.46 | 94 | 1017.1 |
| 20260902004537 | 72 | 101 | 5.0 | 15.0 | 0.00 | 0.46 | 0.46 | 95 | 1017.2 |
| 20260902004039 | 73 | 95 | 6.0 | 17.0 | 0.00 | 0.46 | 0.46 | 94 | 1017.1 |
| 20260902003538 | 73 | 111 | 5.0 | 17.0 | 0.00 | 0.46 | 0.46 | 94 | 1017.2 |
| 20260902003036 | 74 | 109 | 5.0 | 14.0 | 0.00 | 0.46 | 0.46 | 95 | 1017.1 |
| 20260902002536 | 74 | 132 | 4.0 | 12.0 | 0.00 | 0.46 | 0.46 | 95 | 1017.0 |
| 20260902002035 | 74 | 134 | 5.0 | 13.0 | 0.00 | 0.46 | 0.46 | 94 | 1016.8 |
| 20260902001536 | 75 | 140 | 7.0 | 13.0 | 0.00 | 0.46 | 0.46 | 95 | 1016.6 |
| 20260902001035 | 75 | 148 | 6.0 | 11.0 | 0.00 | 0.46 | 0.46 | 94 | 1016.6 |
| 20260902000534 | 75 | 150 | 4.0 | 9.0 | 0.00 | 0.46 | 0.46 | 94 | 1016.6 |
| 20260902000035 | 75 | 150 | 3.0 | 8.0 | 0.00 | 0.46 | 0.46 | 94 | 1016.7 |
| 20260901235534 | 75 | 150 | 0.0 | 6.0 | 0.00 | 0.46 | 0.46 | 94 | 1016.8 |
| 20260901235035 | 75 | 150 | 2.0 | 6.0 | 0.00 | 0.46 | 0.46 | 94 | 1016.5 |
| 20260901234535 | 75 | 150 | 1.0 | 7.0 | 0.00 | 0.46 | 0.46 | 94 | 1016.7 |
| 20260901234037 | 75 | 150 | 2.0 | 7.0 | 0.00 | 0.46 | 0.46 | 94 | 1016.4 |
| 20260901233534 | 75 | 150 | 2.0 | 6.0 | 0.00 | 0.46 | 0.46 | 94 | 1016.5 |
| 20260901233033 | 75 | 150 | 1.0 | 6.0 | 0.00 | 0.46 | 0.46 | 94 | 1016.7 |
| 20260901232533 | 75 | 150 | 1.0 | 6.0 | 0.00 | 0.46 | 0.46 | 94 | 1016.6 |
| 20260901232035 | 75 | 150 | 2.0 | 6.0 | 0.00 | 0.46 | 0.46 | 94 | 1016.6 |
| 20260901231533 | 75 | 150 | 3.0 | 6.0 | 0.00 | 0.46 | 0.46 | 94 | 1016.4 |
| 20260901231032 | 75 | 150 | 1.0 | 8.0 | 0.00 | 0.46 | 0.46 | 94 | 1016.4 |
| 20260901230533 | 75 | 150 | 4.0 | 8.0 | 0.00 | 0.46 | 0.46 | 94 | 1016.2 |
| 20260901230041 | 75 | 150 | 2.0 | 8.0 | 0.00 | 0.46 | 0.46 | 94 | 1016.4 |
| 20260901225532 | 75 | 150 | 4.0 | 8.0 | 0.00 | 0.46 | 0.46 | 93 | 1016.1 |
| 20260901225032 | 75 | 150 | 2.0 | 8.0 | 0.00 | 0.46 | 0.46 | 93 | 1016.3 |
| 20260901224532 | 75 | 150 | 3.0 | 9.0 | 0.00 | 0.46 | 0.46 | 93 | 1016.2 |
| 20260901224033 | 75 | 150 | 4.0 | 9.0 | 0.00 | 0.46 | 0.46 | 93 | 1016.2 |
| 20260901223532 | 76 | 150 | 2.0 | 7.0 | 0.00 | 0.46 | 0.46 | 92 | 1016.0 |
| 20260901223032 | 76 | 150 | 2.0 | 9.0 | 0.00 | 0.46 | 0.46 | 91 | 1016.2 |
| 20260901222534 | 76 | 150 | 5.0 | 9.0 | 0.00 | 0.46 | 0.46 | 91 | 1016.1 |
| 20260901222030 | 76 | 150 | 1.0 | 10.0 | 0.00 | 0.46 | 0.46 | 91 | 1016.0 |
| 20260901221540 | 76 | 150 | 4.0 | 8.0 | 0.00 | 0.46 | 0.46 | 91 | 1016.1 |
| 20260901221031 | 76 | 150 | 3.0 | 8.0 | 0.00 | 0.46 | 0.46 | 90 | 1016.0 |
| 20260901220529 | 76 | 150 | 2.0 | 10.0 | 0.00 | 0.46 | 0.46 | 90 | 1016.0 |
| 20260901220030 | 76 | 150 | 5.0 | 10.0 | 0.00 | 0.46 | 0.46 | 90 | 1015.9 |
| 20260901215530 | 76 | 150 | 5.0 | 9.0 | 0.00 | 0.46 | 0.46 | 90 | 1016.0 |
| 20260901215031 | 77 | 150 | 5.0 | 9.0 | 0.00 | 0.46 | 0.46 | 90 | 1016.0 |
| 20260901214529 | 77 | 150 | 3.0 | 10.0 | 0.00 | 0.46 | 0.46 | 90 | 1016.1 |
| 20260901214029 | 77 | 150 | 7.0 | 10.0 | 0.00 | 0.46 | 0.46 | 90 | 1015.8 |
| 20260901213529 | 77 | 150 | 4.0 | 10.0 | 0.00 | 0.46 | 0.46 | 90 | 1015.9 |
| 20260901213054 | 77 | 150 | 6.0 | 10.0 | 0.00 | 0.46 | 0.46 | 90 | 1016.0 |
| 20260901212528 | 77 | 152 | 5.0 | 9.0 | 0.00 | 0.46 | 0.46 | 90 | 1016.1 |
| 20260901212029 | 77 | 152 | 3.0 | 8.0 | 0.00 | 0.46 | 0.46 | 91 | 1016.2 |
| 20260901211539 | 77 | 152 | 5.0 | 9.0 | 0.00 | 0.46 | 0.46 | 90 | 1016.2 |
| 20260901211027 | 77 | 152 | 4.0 | 9.0 | 0.00 | 0.46 | 0.46 | 90 | 1016.2 |
| 20260901210527 | 77 | 152 | 3.0 | 9.0 | 0.00 | 0.46 | 0.46 | 90 | 1016.3 |
| 20260901210037 | 76 | 152 | 4.0 | 9.0 | 0.00 | 0.46 | 0.46 | 91 | 1016.4 |
| 20260901205527 | 76 | 152 | 4.0 | 8.0 | 0.00 | 0.46 | 0.46 | 91 | 1016.4 |
| 20260901205027 | 76 | 152 | 3.0 | 8.0 | 0.00 | 0.46 | 0.46 | 91 | 1016.4 |
| 20260901204527 | 76 | 152 | 3.0 | 8.0 | 0.00 | 0.46 | 0.46 | 91 | 1016.5 |
| 20260901204027 | 77 | 152 | 5.0 | 9.0 | 0.00 | 0.46 | 0.46 | 90 | 1016.4 |
| 20260901203531 | 77 | 152 | 5.0 | 9.0 | 0.00 | 0.46 | 0.46 | 90 | 1016.3 |
| 20260901203040 | 76 | 152 | 4.0 | 8.0 | 0.00 | 0.46 | 0.46 | 90 | 1016.2 |
| 20260901202526 | 77 | 152 | 3.0 | 7.0 | 0.00 | 0.46 | 0.46 | 90 | 1016.2 |
| 20260901202026 | 77 | 152 | 2.0 | 8.0 | 0.00 | 0.46 | 0.46 | 90 | 1016.1 |
| 20260901201526 | 77 | 152 | 4.0 | 8.0 | 0.00 | 0.46 | 0.46 | 90 | 1016.1 |
| 20260901201026 | 77 | 152 | 4.0 | 8.0 | 0.00 | 0.46 | 0.46 | 90 | 1015.8 |
| 20260901200528 | 77 | 152 | 4.0 | 8.0 | 0.00 | 0.46 | 0.46 | 89 | 1015.8 |
| 20260901200038 | 77 | 153 | 4.0 | 7.0 | 0.00 | 0.46 | 0.46 | 89 | 1015.8 |
| 20260901195525 | 77 | 152 | 1.0 | 7.0 | 0.00 | 0.46 | 0.46 | 91 | 1015.9 |
| 20260901195024 | 77 | 153 | 4.0 | 7.0 | 0.00 | 0.46 | 0.46 | 90 | 1016.0 |
| 20260901194524 | 77 | 152 | 3.0 | 7.0 | 0.00 | 0.46 | 0.46 | 90 | 1016.1 |
| 20260901194023 | 77 | 152 | 0.0 | 5.0 | 0.00 | 0.46 | 0.46 | 92 | 1016.2 |
| 20260901193523 | 76 | 153 | 1.0 | 7.0 | 0.00 | 0.46 | 0.46 | 92 | 1016.3 |
| 20260901193024 | 76 | 152 | 3.0 | 7.0 | 0.00 | 0.46 | 0.46 | 92 | 1016.2 |
| 20260901192520 | 76 | 152 | 2.0 | 6.0 | 0.00 | 0.46 | 0.46 | 93 | 1016.3 |
| 20260901192023 | 75 | 153 | 3.0 | 5.0 | 0.00 | 0.46 | 0.46 | 92 | 1016.3 |
| 20260901191523 | 76 | 152 | 2.0 | 5.0 | 0.00 | 0.46 | 0.46 | 92 | 1016.3 |
| 20260901191025 | 75 | 153 | 0.0 | 5.0 | 0.00 | 0.46 | 0.46 | 93 | 1016.3 |
| 20260901190520 | 75 | 153 | 2.0 | 5.0 | 0.00 | 0.46 | 0.46 | 93 | 1016.3 |
| 20260901190022 | 75 | 152 | 2.0 | 5.0 | 0.00 | 0.46 | 0.46 | 94 | 1016.4 |
| 20260901185520 | 75 | 153 | 1.0 | 7.0 | 0.00 | 0.46 | 0.46 | 93 | 1016.4 |
| 20260901185022 | 75 | 153 | 4.0 | 7.0 | 0.00 | 0.46 | 0.46 | 94 | 1016.2 |
| 20260901184523 | 76 | 153 | 2.0 | 6.0 | 0.00 | 0.46 | 0.46 | 94 | 1016.2 |
| 20260901184018 | 75 | 152 | 2.0 | 6.0 | 0.00 | 0.46 | 0.46 | 94 | 1016.3 |
| 20260901183516 | 75 | 152 | 2.0 | 5.0 | 0.00 | 0.46 | 0.46 | 95 | 1016.3 |
| 20260901183015 | 74 | 152 | 2.0 | 6.0 | 0.00 | 0.46 | 0.46 | 95 | 1016.3 |
| 20260901182515 | 74 | 152 | 2.0 | 6.0 | 0.00 | 0.46 | 0.46 | 96 | 1016.3 |
| 20260901182014 | 74 | 152 | 2.0 | 6.0 | 0.00 | 0.46 | 0.46 | 96 | 1016.4 |
| 20260901181516 | 74 | 153 | 2.0 | 5.0 | 0.00 | 0.46 | 0.46 | 96 | 1016.5 |
| 20260901181013 | 74 | 152 | 2.0 | 7.0 | 0.00 | 0.46 | 0.46 | 97 | 1016.5 |
| 20260901180512 | 74 | 153 | 2.0 | 7.0 | 0.00 | 0.46 | 0.46 | 97 | 1016.5 |
| 20260901180012 | 74 | 153 | 3.0 | 6.0 | 0.00 | 0.46 | 0.46 | 96 | 1016.3 |
| 20260901175512 | 74 | 153 | 2.0 | 6.0 | 0.00 | 0.46 | 0.46 | 97 | 1016.1 |
| 20260901175011 | 74 | 153 | 3.0 | 6.0 | 0.00 | 0.46 | 0.46 | 97 | 1015.8 |
| 20260901174511 | 74 | 153 | 0.0 | 3.0 | 0.00 | 0.46 | 0.46 | 97 | 1016.2 |
| 20260901174014 | 74 | 153 | 0.0 | 5.0 | 0.00 | 0.46 | 0.46 | 97 | 1016.4 |
| 20260901173508 | 74 | 152 | 2.0 | 5.0 | 0.00 | 0.46 | 0.46 | 97 | 1016.4 |
| 20260901173008 | 74 | 153 | 1.0 | 5.0 | 0.00 | 0.46 | 0.46 | 97 | 1016.4 |
| 20260901172507 | 74 | 152 | 1.0 | 5.0 | 0.00 | 0.46 | 0.46 | 97 | 1016.5 |
| 20260901172008 | 74 | 153 | 1.0 | 6.0 | 0.00 | 0.46 | 0.46 | 97 | 1016.7 |
| 20260901171504 | 74 | 152 | 2.0 | 6.0 | 0.00 | 0.46 | 0.46 | 97 | 1016.8 |
| 20260901171002 | 74 | 152 | 2.0 | 8.0 | 0.01 | 0.46 | 0.46 | 97 | 1016.9 |
| 20260901170502 | 73 | 152 | 4.0 | 8.0 | 0.01 | 0.46 | 0.46 | 97 | 1016.9 |
| 20260901170100 | 74 | 153 | 2.0 | 5.0 | 0.01 | 0.46 | 0.46 | 97 | 1017.1 |
| 20260901165601 | 73 | 152 | 2.0 | 6.0 | 0.02 | 0.46 | 0.46 | 97 | 1017.0 |
| 20260901165101 | 74 | 152 | 3.0 | 6.0 | 0.03 | 0.46 | 0.46 | 97 | 1017.0 |
| 20260901164559 | 74 | 152 | 0.0 | 6.0 | 0.03 | 0.46 | 0.46 | 97 | 1016.9 |
| 20260901164058 | 74 | 153 | 2.0 | 6.0 | 0.04 | 0.46 | 0.46 | 97 | 1016.8 |
| 20260901163558 | 74 | 152 | 1.0 | 6.0 | 0.05 | 0.46 | 0.46 | 97 | 1016.8 |
| 20260901163100 | 74 | 152 | 1.0 | 6.0 | 0.05 | 0.46 | 0.46 | 97 | 1017.0 |
| 20260901162557 | 74 | 153 | 1.0 | 8.0 | 0.05 | 0.46 | 0.46 | 97 | 1016.9 |
| 20260901162054 | 74 | 152 | 3.0 | 8.0 | 0.05 | 0.46 | 0.46 | 97 | 1017.2 |
| 20260901161553 | 73 | 153 | 2.0 | 7.0 | 0.05 | 0.46 | 0.46 | 97 | 1017.6 |
| 20260901161051 | 73 | 153 | 1.0 | 7.0 | 0.04 | 0.45 | 0.45 | 97 | 1017.8 |
| 20260901160551 | 73 | 152 | 3.0 | 7.0 | 0.04 | 0.45 | 0.45 | 97 | 1018.0 |
| 20260901160049 | 73 | 153 | 2.0 | 6.0 | 0.05 | 0.45 | 0.45 | 96 | 1018.1 |
| 20260901155550 | 73 | 153 | 2.0 | 5.0 | 0.04 | 0.44 | 0.44 | 96 | 1018.2 |
| 20260901155049 | 73 | 152 | 0.0 | 5.0 | 0.03 | 0.43 | 0.43 | 96 | 1018.1 |
| 20260901154545 | 74 | 152 | 0.0 | 5.0 | 0.02 | 0.42 | 0.42 | 96 | 1017.9 |
| 20260901154044 | 74 | 152 | 0.0 | 5.0 | 0.02 | 0.42 | 0.42 | 96 | 1018.0 |
| 20260901153544 | 74 | 152 | 0.0 | 5.0 | 0.01 | 0.41 | 0.41 | 96 | 1018.0 |
| 20260901153042 | 74 | 153 | 0.0 | 7.0 | 0.01 | 0.41 | 0.41 | 96 | 1017.9 |
| 20260901152539 | 74 | 152 | 2.0 | 7.0 | 0.01 | 0.41 | 0.41 | 96 | 1018.1 |
| 20260901152038 | 74 | 152 | 3.0 | 6.0 | 0.01 | 0.41 | 0.41 | 95 | 1018.1 |
| 20260901151536 | 74 | 152 | 0.0 | 6.0 | 0.01 | 0.41 | 0.41 | 95 | 1018.1 |
| 20260901151038 | 74 | 152 | 0.0 | 6.0 | 0.01 | 0.41 | 0.41 | 95 | 1018.1 |
| 20260901150533 | 74 | 152 | 0.0 | 5.0 | 0.00 | 0.40 | 0.40 | 95 | 1018.5 |
| 20260901150032 | 74 | 152 | 2.0 | 5.0 | 0.00 | 0.40 | 0.40 | 95 | 1018.5 |
| 20260901145531 | 74 | 153 | 2.0 | 5.0 | 0.00 | 0.40 | 0.40 | 95 | 1018.1 |
| 20260901145029 | 74 | 152 | 0.0 | 5.0 | 0.00 | 0.40 | 0.40 | 95 | 1018.2 |
| 20260901144529 | 74 | 152 | 1.0 | 6.0 | 0.00 | 0.40 | 0.40 | 95 | 1018.1 |
| 20260901144028 | 74 | 152 | 1.0 | 6.0 | 0.00 | 0.40 | 0.40 | 96 | 1018.1 |
| 20260901143526 | 74 | 152 | 2.0 | 6.0 | 0.00 | 0.40 | 0.40 | 95 | 1018.0 |
| 20260901143025 | 74 | 152 | 1.0 | 6.0 | 0.00 | 0.40 | 0.40 | 96 | 1018.0 |
| 20260901142523 | 74 | 152 | 2.0 | 7.0 | 0.00 | 0.40 | 0.40 | 96 | 1018.1 |
| 20260901142022 | 74 | 152 | 3.0 | 7.0 | 0.00 | 0.40 | 0.40 | 96 | 1017.9 |
| 20260901141527 | 74 | 152 | 1.0 | 6.0 | 0.00 | 0.40 | 0.40 | 96 | 1017.9 |
| 20260901141019 | 74 | 152 | 3.0 | 6.0 | 0.00 | 0.40 | 0.40 | 96 | 1017.9 |
| 20260901140517 | 74 | 153 | 1.0 | 5.0 | 0.00 | 0.40 | 0.40 | 96 | 1017.9 |
| 20260901140016 | 74 | 152 | 2.0 | 6.0 | 0.00 | 0.40 | 0.40 | 96 | 1017.9 |
| 20260901135518 | 74 | 152 | 2.0 | 7.0 | 0.00 | 0.40 | 0.40 | 96 | 1017.8 |
| 20260901135013 | 74 | 153 | 1.0 | 9.0 | 0.00 | 0.40 | 0.40 | 96 | 1017.9 |
| 20260901134511 | 73 | 152 | 4.0 | 9.0 | 0.00 | 0.40 | 0.40 | 96 | 1017.8 |
| 20260901134009 | 74 | 152 | 2.0 | 6.0 | 0.00 | 0.40 | 0.40 | 96 | 1017.8 |
| 20260901133508 | 73 | 152 | 2.0 | 6.0 | 0.00 | 0.40 | 0.40 | 96 | 1017.9 |
| 20260901133007 | 73 | 152 | 3.0 | 6.0 | 0.00 | 0.40 | 0.40 | 96 | 1017.9 |
| 20260901132506 | 73 | 152 | 0.0 | 5.0 | 0.00 | 0.40 | 0.40 | 97 | 1017.8 |
| 20260901132005 | 73 | 152 | 1.0 | 5.0 | 0.00 | 0.40 | 0.40 | 97 | 1017.9 |
| 20260901131510 | 73 | 153 | 1.0 | 5.0 | 0.00 | 0.40 | 0.40 | 97 | 1017.8 |
| 20260901131005 | 73 | 152 | 0.0 | 2.0 | 0.00 | 0.40 | 0.40 | 97 | 1017.8 |
| 20260901130601 | 73 | 153 | 0.0 | 0.0 | 0.00 | 0.40 | 0.40 | 97 | 1017.7 |
| 20260901130059 | 73 | 152 | 0.0 | 5.0 | 0.00 | 0.40 | 0.40 | 97 | 1017.7 |
| 20260901125558 | 73 | 153 | 2.0 | 5.0 | 0.00 | 0.40 | 0.40 | 97 | 1017.7 |
| 20260901125057 | 73 | 152 | 0.0 | 3.0 | 0.00 | 0.40 | 0.40 | 97 | 1017.9 |
| 20260901124557 | 73 | 152 | 1.0 | 3.0 | 0.00 | 0.40 | 0.40 | 97 | 1018.0 |
| 20260901124055 | 73 | 153 | 0.0 | 3.0 | 0.00 | 0.40 | 0.40 | 97 | 1018.0 |
| 20260901123554 | 73 | 152 | 0.0 | 0.0 | 0.00 | 0.40 | 0.40 | 97 | 1017.8 |
| 20260901123055 | 73 | 152 | 0.0 | 2.0 | 0.00 | 0.40 | 0.40 | 98 | 1017.9 |
| 20260901122551 | 72 | 152 | 0.0 | 0.0 | 0.00 | 0.40 | 0.40 | 97 | 1018.0 |
| 20260901122050 | 72 | 152 | 0.0 | 0.0 | 0.00 | 0.40 | 0.40 | 97 | 1017.9 |
| 20260901121550 | 72 | 153 | 0.0 | 0.0 | 0.00 | 0.40 | 0.40 | 97 | 1018.1 |
| 20260901121048 | 72 | 152 | 0.0 | 0.0 | 0.00 | 0.40 | 0.40 | 97 | 1018.1 |
| 20260901120546 | 72 | 153 | 0.0 | 5.0 | 0.00 | 0.40 | 0.40 | 97 | 1018.2 |
| 20260901120047 | 72 | 152 | 1.0 | 5.0 | 0.00 | 0.40 | 0.40 | 97 | 1018.0 |
| 20260901115544 | 72 | 152 | 2.0 | 3.0 | 0.00 | 0.40 | 0.40 | 97 | 1018.0 |
| 20260901115042 | 72 | 152 | 1.0 | 3.0 | 0.00 | 0.40 | 0.40 | 98 | 1018.2 |
| 20260901114544 | 72 | 152 | 1.0 | 3.0 | 0.00 | 0.40 | 0.40 | 97 | 1018.2 |
| 20260901114039 | 72 | 153 | 0.0 | 6.0 | 0.00 | 0.40 | 0.40 | 97 | 1018.3 |
| 20260901113542 | 71 | 152 | 1.0 | 6.0 | 0.00 | 0.40 | 0.40 | 97 | 1018.1 |
| 20260901113038 | 71 | 152 | 2.0 | 6.0 | 0.00 | 0.40 | 0.40 | 97 | 1018.0 |
| 20260901112537 | 71 | 152 | 0.0 | 1.0 | 0.00 | 0.40 | 0.40 | 97 | 1018.3 |
| 20260901112041 | 71 | 152 | 0.0 | 0.0 | 0.00 | 0.40 | 0.40 | 97 | 1018.3 |
| 20260901111538 | 71 | 152 | 0.0 | 2.0 | 0.00 | 0.40 | 0.40 | 97 | 1018.4 |
| 20260901111036 | 71 | 152 | 0.0 | 2.0 | 0.00 | 0.40 | 0.40 | 97 | 1018.5 |
| 20260901110541 | 71 | 152 | 0.0 | 3.0 | 0.00 | 0.40 | 0.40 | 97 | 1018.4 |
| 20260901110037 | 71 | 152 | 0.0 | 3.0 | 0.00 | 0.40 | 0.40 | 97 | 1018.2 |
| 20260901105637 | 70 | 153 | 0.0 | 3.0 | 0.00 | 0.40 | 0.40 | 97 | 1018.3 |
| 20260901105041 | 70 | 152 | 0.0 | 3.0 | 0.00 | 0.40 | 0.40 | 97 | 1018.2 |
| 20260901104536 | 70 | 152 | 1.0 | 5.0 | 0.00 | 0.40 | 0.40 | 97 | 1018.1 |
| 20260901104036 | 70 | 152 | 1.0 | 3.0 | 0.00 | 0.40 | 0.40 | 97 | 1018.0 |
| 20260901103537 | 70 | 152 | 0.0 | 3.0 | 0.00 | 0.40 | 0.40 | 97 | 1018.1 |
| 20260901103036 | 70 | 152 | 0.0 | 3.0 | 0.00 | 0.40 | 0.40 | 97 | 1018.1 |
| 20260901102535 | 70 | 152 | 0.0 | 5.0 | 0.00 | 0.40 | 0.40 | 97 | 1018.1 |
| 20260901102036 | 70 | 152 | 2.0 | 5.0 | 0.00 | 0.40 | 0.40 | 97 | 1018.1 |
| 20260901101535 | 70 | 152 | 1.0 | 6.0 | 0.00 | 0.40 | 0.40 | 97 | 1018.2 |
| 20260901101035 | 70 | 152 | 1.0 | 6.0 | 0.00 | 0.40 | 0.40 | 97 | 1018.1 |
| 20260901100535 | 70 | 152 | 1.0 | 6.0 | 0.00 | 0.40 | 0.40 | 97 | 1017.9 |
| 20260901100035 | 70 | 152 | 2.0 | 7.0 | 0.00 | 0.40 | 0.40 | 97 | 1017.8 |
| 20260901095534 | 70 | 152 | 3.0 | 7.0 | 0.00 | 0.40 | 0.40 | 97 | 1017.9 |
| 20260901095034 | 70 | 152 | 3.0 | 6.0 | 0.00 | 0.40 | 0.40 | 97 | 1017.9 |
| 20260901094534 | 70 | 152 | 2.0 | 6.0 | 0.00 | 0.40 | 0.40 | 97 | 1017.9 |
| 20260901094036 | 69 | 153 | 1.0 | 6.0 | 0.04 | 0.40 | 0.40 | 97 | 1017.8 |
| 20260901093536 | 69 | 152 | 0.0 | 3.0 | 0.05 | 0.40 | 0.40 | 97 | 1018.1 |
| 20260901093033 | 69 | 152 | 1.0 | 5.0 | 0.05 | 0.40 | 0.40 | 97 | 1018.1 |
| 20260901092531 | 69 | 152 | 1.0 | 3.0 | 0.05 | 0.40 | 0.40 | 97 | 1018.1 |
| 20260901092031 | 69 | 152 | 0.0 | 3.0 | 0.06 | 0.40 | 0.40 | 97 | 1018.2 |
| 20260901091531 | 69 | 153 | 1.0 | 5.0 | 0.06 | 0.40 | 0.40 | 96 | 1018.2 |
| 20260901091033 | 69 | 152 | 1.0 | 5.0 | 0.06 | 0.40 | 0.40 | 96 | 1018.3 |
| 20260901090530 | 69 | 152 | 2.0 | 5.0 | 0.06 | 0.40 | 0.40 | 96 | 1018.2 |
| 20260901090030 | 69 | 152 | 1.0 | 5.0 | 0.06 | 0.40 | 0.40 | 96 | 1018.3 |
| 20260901085530 | 69 | 152 | 0.0 | 5.0 | 0.06 | 0.40 | 0.40 | 96 | 1018.3 |
| 20260901085030 | 69 | 152 | 0.0 | 5.0 | 0.06 | 0.40 | 0.40 | 96 | 1018.2 |
| 20260901084529 | 69 | 152 | 1.0 | 5.0 | 0.06 | 0.40 | 0.40 | 96 | 1018.3 |
| 20260901084029 | 69 | 152 | 1.0 | 6.0 | 0.03 | 0.35 | 0.35 | 96 | 1018.5 |
| 20260901083529 | 69 | 152 | 1.0 | 5.0 | 0.09 | 0.35 | 0.35 | 96 | 1018.4 |
| 20260901083029 | 69 | 153 | 0.0 | 5.0 | 0.09 | 0.35 | 0.35 | 96 | 1018.5 |
| 20260901082528 | 69 | 152 | 0.0 | 5.0 | 0.10 | 0.35 | 0.35 | 96 | 1018.5 |
| 20260901082028 | 69 | 152 | 0.0 | 3.0 | 0.09 | 0.34 | 0.34 | 96 | 1018.6 |
| 20260901081528 | 69 | 152 | 0.0 | 5.0 | 0.10 | 0.34 | 0.34 | 96 | 1018.5 |
| 20260901081028 | 69 | 153 | 1.0 | 3.0 | 0.10 | 0.34 | 0.34 | 96 | 1018.4 |
| 20260901080528 | 69 | 152 | 0.0 | 3.0 | 0.10 | 0.34 | 0.34 | 96 | 1018.5 |
| 20260901080027 | 69 | 152 | 0.0 | 3.0 | 0.10 | 0.34 | 0.34 | 95 | 1018.3 |
| 20260901075529 | 69 | 153 | 0.0 | 3.0 | 0.10 | 0.34 | 0.34 | 95 | 1018.4 |
| 20260901075027 | 69 | 153 | 0.0 | 7.0 | 0.10 | 0.34 | 0.34 | 95 | 1018.7 |
| 20260901074527 | 69 | 153 | 1.0 | 7.0 | 0.11 | 0.34 | 0.34 | 95 | 1018.5 |
| 20260901074027 | 69 | 152 | 0.0 | 3.0 | 0.09 | 0.32 | 0.32 | 95 | 1018.4 |
| 20260901073526 | 69 | 152 | 0.0 | 3.0 | 0.03 | 0.26 | 0.26 | 95 | 1018.4 |
| 20260901073025 | 69 | 152 | 1.0 | 3.0 | 0.03 | 0.26 | 0.26 | 95 | 1018.4 |
| 20260901072526 | 70 | 152 | 0.0 | 5.0 | 0.03 | 0.25 | 0.25 | 95 | 1018.5 |
| 20260901072024 | 70 | 152 | 0.0 | 5.0 | 0.03 | 0.24 | 0.24 | 95 | 1018.5 |
| 20260901071524 | 69 | 152 | 1.0 | 6.0 | 0.04 | 0.24 | 0.24 | 94 | 1018.5 |
| 20260901071023 | 70 | 152 | 3.0 | 6.0 | 0.05 | 0.24 | 0.24 | 94 | 1018.4 |
| 20260901070522 | 70 | 152 | 3.0 | 6.0 | 0.09 | 0.24 | 0.24 | 94 | 1018.4 |
| 20260901070026 | 70 | 152 | 3.0 | 6.0 | 0.11 | 0.24 | 0.24 | 94 | 1018.5 |
| 20260901065521 | 70 | 152 | 2.0 | 5.0 | 0.13 | 0.24 | 0.24 | 94 | 1018.7 |
| 20260901065025 | 70 | 152 | 0.0 | 6.0 | 0.14 | 0.24 | 0.24 | 94 | 1018.9 |
| 20260901064534 | 70 | 152 | 3.0 | 6.0 | 0.14 | 0.23 | 0.23 | 94 | 1018.9 |
| 20260901064021 | 69 | 152 | 4.0 | 6.0 | 0.16 | 0.23 | 0.23 | 93 | 1018.8 |
| 20260901063519 | 70 | 152 | 2.0 | 5.0 | 0.19 | 0.23 | 0.23 | 94 | 1019.0 |
| 20260901063027 | 70 | 152 | 1.0 | 2.0 | 0.20 | 0.23 | 0.23 | 93 | 1019.1 |
| 20260901062520 | 70 | 153 | 1.0 | 2.0 | 0.21 | 0.22 | 0.22 | 93 | 1019.1 |
| 20260901062020 | 70 | 152 | 1.0 | 2.0 | 0.20 | 0.20 | 0.20 | 93 | 1019.2 |
| 20260901061518 | 70 | 152 | 0.0 | 3.0 | 0.20 | 0.20 | 0.20 | 93 | 1019.2 |
| 20260901061016 | 70 | 152 | 1.0 | 3.0 | 0.19 | 0.19 | 0.19 | 92 | 1019.2 |
| 20260901060514 | 71 | 152 | 0.0 | 1.0 | 0.15 | 0.15 | 0.15 | 93 | 1019.3 |
| 20260901060015 | 71 | 153 | 0.0 | 1.0 | 0.12 | 0.12 | 0.12 | 93 | 1019.4 |
| 20260901055514 | 71 | 152 | 0.0 | 2.0 | 0.11 | 0.11 | 0.11 | 92 | 1019.4 |
| 20260901055013 | 71 | 152 | 0.0 | 2.0 | 0.10 | 0.10 | 0.10 | 92 | 1019.4 |
| 20260901054512 | 71 | 152 | 1.0 | 3.0 | 0.08 | 0.08 | 0.08 | 92 | 1019.5 |
| 20260901054012 | 71 | 152 | 1.0 | 3.0 | 0.06 | 0.06 | 0.06 | 92 | 1019.4 |
| 20260901053511 | 71 | 152 | 0.0 | 2.0 | 0.03 | 0.03 | 0.03 | 92 | 1019.4 |
| 20260901053010 | 71 | 152 | 0.0 | 3.0 | 0.02 | 0.02 | 0.02 | 92 | 1019.5 |
| 20260901052512 | 72 | 152 | 1.0 | 3.0 | 0.01 | 0.01 | 0.01 | 92 | 1019.5 |
| 20260901052009 | 72 | 152 | 1.0 | 6.0 | 0.00 | 0.00 | 0.00 | 92 | 1019.5 |
| 20260901051508 | 72 | 152 | 2.0 | 7.0 | 0.00 | 0.00 | 0.00 | 91 | 1019.5 |
| 20260901051008 | 72 | 152 | 3.0 | 9.0 | 0.00 | 0.00 | 0.00 | 91 | 1019.5 |
| 20260901050508 | 72 | 153 | 4.0 | 10.0 | 0.00 | 0.00 | 0.00 | 91 | 1019.5 |
| 20260901050007 | 72 | 152 | 6.0 | 10.0 | 0.00 | 0.00 | 0.00 | 90 | 1019.6 |
| 20260901045505 | 72 | 150 | 5.0 | 10.0 | 0.00 | 0.00 | 0.00 | 90 | 1019.7 |
| 20260901045006 | 72 | 149 | 4.0 | 9.0 | 0.00 | 0.00 | 0.00 | 90 | 1019.8 |
| 20260901044507 | 72 | 148 | 3.0 | 8.0 | 0.00 | 0.00 | 0.00 | 91 | 1019.7 |
| 20260901044006 | 72 | 148 | 3.0 | 8.0 | 0.00 | 0.00 | 0.00 | 90 | 1019.7 |
| 20260901043505 | 72 | 148 | 3.0 | 8.0 | 0.00 | 0.00 | 0.00 | 90 | 1019.7 |
| 20260901043004 | 72 | 147 | 4.0 | 7.0 | 0.00 | 0.00 | 0.00 | 90 | 1019.7 |
| 20260901042502 | 72 | 146 | 3.0 | 5.0 | 0.00 | 0.00 | 0.00 | 90 | 1019.7 |
| 20260901042002 | 72 | 146 | 1.0 | 5.0 | 0.00 | 0.00 | 0.00 | 90 | 1019.7 |
| 20260901041502 | 72 | 146 | 3.0 | 5.0 | 0.00 | 0.00 | 0.00 | 90 | 1019.8 |
| 20260901041003 | 72 | 147 | 1.0 | 7.0 | 0.00 | 0.00 | 0.00 | 89 | 1019.8 |
| 20260901040501 | 72 | 146 | 3.0 | 7.0 | 0.00 | 0.00 | 0.00 | 89 | 1019.8 |
| 20260901040109 | 72 | 146 | 0.0 | 5.0 | 0.00 | 0.00 | 0.00 | 89 | 1019.9 |
| 20260901035603 | 72 | 146 | 1.0 | 5.0 | 0.00 | 0.00 | 0.00 | 89 | 1019.9 |
| 20260901035059 | 72 | 146 | 0.0 | 3.0 | 0.00 | 0.00 | 0.00 | 90 | 1019.8 |
| 20260901034608 | 72 | 146 | 0.0 | 3.0 | 0.00 | 0.00 | 0.00 | 90 | 1019.7 |
| 20260901034101 | 72 | 146 | 0.0 | 3.0 | 0.00 | 0.00 | 0.00 | 90 | 1019.9 |
| 20260901033558 | 72 | 146 | 1.0 | 4.0 | 0.00 | 0.00 | 0.00 | 90 | 1019.9 |
| 20260901033058 | 72 | 146 | 1.0 | 3.0 | 0.00 | 0.00 | 0.00 | 90 | 1019.9 |
| 20260901032559 | 72 | 146 | 1.0 | 3.0 | 0.00 | 0.00 | 0.00 | 89 | 1019.9 |
| 20260901032055 | 72 | 146 | 0.0 | 2.0 | 0.00 | 0.00 | 0.00 | 89 | 1020.0 |
| 20260901031556 | 72 | 146 | 0.0 | 3.0 | 0.00 | 0.00 | 0.00 | 89 | 1020.1 |
| 20260901031055 | 72 | 146 | 0.0 | 3.0 | 0.00 | 0.00 | 0.00 | 89 | 1020.1 |
| 20260901030555 | 72 | 146 | 0.0 | 2.0 | 0.00 | 0.00 | 0.00 | 90 | 1020.2 |
| 20260901030054 | 72 | 146 | 0.0 | 2.0 | 0.00 | 0.00 | 0.00 | 89 | 1020.3 |
| 20260901025554 | 72 | 146 | 1.0 | 4.0 | 0.00 | 0.01 | 0.00 | 89 | 1020.4 |
| 20260901025057 | 72 | 146 | 2.0 | 4.0 | 0.00 | 0.01 | 0.00 | 89 | 1020.3 |
| 20260901024554 | 72 | 146 | 2.0 | 4.0 | 0.00 | 0.01 | 0.00 | 89 | 1020.3 |